RH
26 26 34 32 27 23 16 12 8 9 12 11 12 17 19 18 18 16 16 18 26 40 48 49 45 54 58 57 60 61 63 61 59 69 64 53 55 54 29 44 59 59 56
24 27 32 33 35 18 14 13 10 8 10 8 8 10 13 11 10 10 13 19 23 30 42 48 51 56 61 61 62 62 61 63 59 63 74 66 66 54 38 43 56 57 56
30 34 36 37 28 12 12 13 10 8 9 9 8 7 8 7 6 7 9 13 20 26 36 45 51 55 63 66 63 62 58 53 52 58 69 75 80 58 46 49 50 58 58
27 22 24 23 19 12 12 12 12 9 9 9 8 7 8 9 7 6 7 12 20 27 35 46 55 58 62 69 66 62 58 50 42 48 66 64 90 68 46 48 49 51 55
31 28 26 25 23 14 12 13 13 10 10 9 9 8 9 10 10 11 12 20 27 36 40 50 59 65 66 69 71 65 59 52 43 47 53 55 70 61 46 50 52 52 56
21 28 29 26 18 16 13 13 15 11 10 9 10 9 8 8 7 10 15 24 37 45 50 50 57 65 71 74 75 68 59 54 48 51 54 46 58 47 46 51 54 55 60
24 28 29 28 24 16 14 14 16 13 11 11 11 11 9 8 7 7 11 21 35 45 51 52 60 64 71 73 82 74 62 57 56 53 58 58 56 55 53 60 59 64 66
23 26 30 30 22 15 15 15 17 15 12 13 13 12 10 9 7 8 23 29 36 44 55 57 60 66 71 76 81 82 70 65 67 58 59 66 64 72 73 68 64 73 76
25 23 21 20 19 20 21 19 19 17 14 15 13 14 11 9 8 10 20 38 34 38 56 67 68 71 79 77 78 79 90 83 69 62 60 69 73 81 82 84 78 80 85
24 23 24 23 21 20 26 25 23 19 13 14 15 15 15 10 8 8 19 38 40 42 54 69 83 81 80 76 78 83 90 79 70 66 60 61 72 86 86 96 88 93 92
23 27 30 25 24 22 28 28 27 24 19 13 17 16 15 10 9 8 14 28 43 55 58 64 79 86 81 76 78 87 81 86 82 73 58 65 72 93 91 98 91 95 99
24 27 35 36 33 25 33 30 29 27 27 17 17 16 16 12 9 9 10 13 26 50 66 67 65 68 76 72 65 71 79 83 86 77 78 64 72 92 98 98 99 100 99
24 27 31 38 33 30 40 38 33 33 34 26 17 19 18 14 10 9 9 10 13 28 45 55 71 74 62 66 66 69 80 78 89 85 91 79 76 86 99 98 100 99 99
25 24 27 38 36 33 26 30 40 37 31 32 20 22 21 19 12 9 9 9 11 14 22 20 67 79 78 74 75 74 86 89 90 91 87 87 86 97 99 99 100 96 97
29 26 26 35 39 36 41 45 18 15 16 23 21 25 23 20 16 11 10 10 10 10 12 17 42 80 84 91 90 85 88 89 94 92 89 95 90 92 92 98 96 94 90
34 32 30 30 28 28 31 58 57 18 19 23 27 28 26 23 20 13 10 10 10 11 22 37 54 82 82 91 93 87 97 97 96 99 98 97 93 93 95 97 97 92 80
44 38 37 42 34 22 26 33 60 55 24 22 33 32 31 29 22 14 11 11 10 14 49 55 80 89 91 94 96 97 97 98 99 94 99 96 100 100 99 95 96 92 86
60 50 41 44 40 33 24 25 47 72 62 29 38 37 36 34 24 16 12 11 11 29 74 77 85 98 99 96 95 100 99 98 99 100 99 99 100 97 100 100 97 100 100
63 59 54 49 48 41 34 30 24 89 77 37 41 39 38 40 25 15 12 13 18 53 64 76 99 93 100 99 96 97 99 100 99 100 100 100 97 100 98 100 100 98 98
67 66 64 54 51 50 45 36 32 32 100 70 50 52 45 44 27 21 15 16 36 58 59 66 80 100 99 100 99 99 100 99 100 100 99 100 100 99 100 100 97 96 98
88 83 74 70 65 91 93 48 34 38 74 96 57 56 55 50 30 25 16 17 52 72 92 94 94 97 100 99 100 100 100 100 100 100 100 98 99 99 100 98 100 98 99
97 100 100 98 99 99 98 97 53 51 94 100 91 62 60 58 36 28 17 24 68 77 100 98 99 98 99 98 99 100 100 100 100 99 100 100 99 100 99 98 100 99 100
95 98 99 100 100 100 99 100 69 50 44 99 83 94 65 58 42 30 18 44 88 72 100 100 98 99 97 100 98 99 99 98 98 100 100 100 100 100 99 99 98 96 76
95 96 96 98 99 99 98 99 94 77 89 99 100 95 71 64 48 33 22 56 74 99 93 99 88 98 99 99 99 99 99 100 100 100 100 100 98 98 100 99 99 99 95
94 96 96 95 98 98 100 99 82 66 99 99 100 100 91 84 64 42 30 80 100 92 98 100 100 91 100 99 100 100 99 100 100 100 100 100 100 100 100 100 98 98 98
77 86 90 95 95 97 97 99 98 95 91 82 100 97 98 96 80 57 42 61 99 91 96 100 85 83 77 100 99 100 100 100 100 100 100 100 100 100 100 100 100 100 99
Wind_Speed
14 13 9 7 7 8 9 9 10 10 10 11 13 15 16 16 15 14 13 13 12 11 10 10 10 10 9 10 10 9 8 8 8 11 12 12 11 10 12 12 13 13 14
15 14 11 7 9 7 9 9 10 10 10 10 11 12 14 14 14 14 16 15 14 13 12 13 12 11 10 11 11 11 10 10 11 11 12 14 14 13 12 13 13 14 14
9 8 9 9 8 9 10 10 10 10 10 10 10 12 12 12 13 14 16 17 16 15 15 14 14 12 12 13 13 12 11 11 11 11 12 14 15 15 14 14 13 14 15
4 6 7 8 10 11 12 11 11 11 12 12 11 11 10 10 11 13 16 16 16 17 16 16 14 13 13 14 14 14 13 13 13 12 12 13 15 15 15 15 15 15 16
14 13 13 15 16 14 13 11 11 12 13 13 12 11 11 11 12 13 14 15 16 16 17 15 15 13 15 16 16 16 15 15 14 13 12 14 14 17 18 17 17 17 18
19 15 15 16 16 17 17 12 12 13 14 14 13 12 11 12 13 14 15 15 16 16 16 16 16 15 15 16 17 17 17 16 14 13 13 15 16 18 19 19 19 20 20
17 18 20 21 20 21 19 14 14 14 14 14 14 13 13 13 14 15 15 16 16 17 17 17 16 16 16 17 17 18 18 16 15 14 14 16 18 19 19 20 21 21 20
16 20 22 24 23 17 17 17 17 15 15 15 15 14 14 13 15 15 15 16 17 17 17 17 16 17 18 18 18 17 16 15 15 15 15 16 17 18 20 21 22 22 24
19 21 22 21 20 22 24 22 20 17 16 16 15 15 15 14 16 15 15 17 18 18 18 17 17 17 19 20 19 19 18 19 17 15 16 16 17 20 23 24 25 24 25
28 26 26 24 25 23 21 24 23 19 18 18 17 17 17 16 16 17 16 17 18 19 19 18 17 19 21 20 20 19 18 17 16 17 18 19 21 24 25 26 27 27 27
25 22 23 24 24 23 22 25 25 23 19 20 19 19 18 17 17 17 18 18 19 20 19 19 19 22 21 20 22 19 18 23 20 21 22 21 22 25 27 29 30 30 30
27 27 26 24 20 20 25 28 28 25 23 22 22 21 19 18 19 19 20 20 22 22 21 21 22 24 22 23 22 21 22 21 24 24 24 22 24 27 33 36 35 33 33
30 31 31 29 26 24 26 30 31 30 27 25 24 23 20 20 20 21 21 21 22 24 24 24 24 23 23 23 22 23 22 23 24 25 23 26 27 31 50 44 35 21 31
34 33 35 35 33 31 29 31 34 35 33 31 28 25 23 22 22 22 22 22 23 24 26 25 26 24 23 25 24 23 24 26 28 24 25 26 25 17 28 27 28 26 23
36 36 38 36 38 37 35 32 33 32 33 32 30 27 25 24 23 23 24 23 23 25 25 25 25 26 25 25 25 22 20 26 29 28 30 28 22 23 27 24 18 19 18
39 39 40 41 42 41 40 36 32 30 31 32 31 28 26 25 23 25 25 24 24 25 24 25 25 26 25 25 24 27 22 26 29 29 36 30 29 30 34 29 25 25 24
45 42 42 43 44 44 43 39 33 28 31 33 32 30 28 26 25 25 26 26 25 25 25 26 27 26 28 27 26 27 22 29 32 26 56 52 36 33 28 24 23 26 25
55 51 46 47 47 47 46 42 34 30 31 34 33 30 28 27 26 26 27 26 26 25 26 28 22 27 29 31 29 24 24 29 31 27 32 35 30 14 31 26 22 27 25
58 59 56 50 50 49 49 44 43 36 37 35 34 32 31 29 27 27 27 26 25 25 28 29 29 23 32 35 33 26 26 28 35 34 39 26 18 27 24 26 24 25 24
51 54 58 59 53 53 50 46 42 43 40 39 37 34 33 30 29 28 27 25 27 27 27 27 20 23 29 33 31 36 35 36 30 32 35 34 33 24 23 18 21 22 23
44 47 50 53 55 48 46 45 46 45 40 38 40 36 33 32 30 29 28 26 27 26 30 27 25 21 34 22 35 45 40 37 41 45 34 30 29 27 28 27 30 25 27
40 42 41 46 47 52 48 46 46 47 45 38 36 39 37 34 31 30 28 27 28 27 29 26 24 29 32 28 40 35 42 52 43 42 38 38 32 33 28 27 34 26 29
32 38 43 43 54 50 46 47 45 44 47 54 46 35 40 37 32 30 29 28 24 24 27 32 33 28 31 34 34 43 45 41 46 46 43 39 38 35 32 37 30 32 22
26 32 33 38 40 50 57 53 45 50 46 43 62 45 44 38 34 32 31 28 24 30 27 30 27 28 28 32 31 35 33 43 51 46 45 42 41 30 34 30 34 27 28
34 23 27 31 29 38 50 49 47 47 52 59 62 50 44 39 35 33 32 35 29 36 31 34 29 31 26 28 31 34 35 39 36 41 41 40 33 38 37 39 33 27 27
23 28 40 34 29 26 33 46 55 56 56 63 45 49 40 41 37 35 34 36 34 35 32 36 32 34 30 26 24 28 32 38 35 29 25 23 30 35 43 37 32 34 33
Wind_Direction
261 270 281 286 285 293 310 308 282 264 261 257 246 242 242 245 247 249 247 244 239 231 222 219 213 208 202 205 203 208 213 219 201 192 197 198 197 186 169 165 165 164 157
259 258 274 254 276 277 299 302 291 268 263 257 248 243 241 243 245 246 244 239 236 231 226 224 220 214 205 206 209 212 213 212 209 204 201 202 199 192 179 173 170 168 165
231 244 230 243 261 290 297 293 292 274 264 257 254 249 245 244 245 243 240 235 231 229 227 226 224 217 207 207 212 216 214 216 215 212 203 201 197 193 187 182 180 174 171
249 236 238 246 282 307 297 284 286 280 265 258 258 253 247 248 250 247 238 233 229 228 228 225 222 218 212 213 214 215 214 215 217 216 210 203 193 190 195 188 186 179 176
263 264 268 277 281 290 307 282 281 283 273 261 258 257 251 253 254 251 241 231 229 229 231 227 223 220 214 216 216 217 218 218 217 215 209 206 202 191 194 193 190 184 181
263 261 266 272 269 286 293 279 278 284 279 267 261 261 256 256 256 250 243 233 227 229 230 229 226 223 220 217 219 220 219 219 216 217 211 203 199 195 195 195 192 188 185
264 260 262 269 275 285 280 270 271 277 277 270 263 263 258 258 255 251 251 241 231 230 230 228 225 223 222 222 223 225 222 217 216 217 216 208 203 194 195 194 190 188 185
258 262 266 271 281 279 266 264 265 266 267 264 261 261 256 256 254 248 246 240 233 230 232 232 227 225 224 223 221 220 224 229 223 215 217 216 211 201 196 195 190 188 187
254 260 269 273 278 279 270 263 260 257 260 260 260 259 255 254 254 245 238 237 237 233 229 230 230 229 227 226 228 231 235 235 231 224 216 216 211 206 199 195 192 190 186
262 265 268 270 277 278 265 254 255 252 259 259 258 254 255 253 252 247 237 237 239 236 230 227 225 228 229 228 227 225 221 219 216 222 218 216 211 206 202 199 195 192 190
240 237 256 269 271 272 254 250 257 255 261 262 258 255 253 248 249 245 239 235 239 237 235 232 226 229 228 229 231 225 231 225 233 227 221 215 213 208 205 203 196 194 191
245 234 234 236 247 251 244 244 250 252 257 260 258 255 250 246 244 242 237 236 235 236 234 236 232 231 232 235 236 230 222 232 225 221 220 216 218 214 207 208 198 196 196
241 235 235 233 236 232 237 240 245 251 257 258 257 256 252 246 243 243 240 239 240 239 237 235 237 234 232 234 233 227 230 232 216 213 218 219 222 240 202 214 193 175 192
241 240 240 237 236 235 228 236 239 245 249 252 251 250 246 243 241 242 242 241 241 241 240 237 235 238 237 235 229 232 233 225 217 215 226 226 221 214 181 174 191 190 182
241 239 242 238 239 237 236 236 241 242 243 246 242 243 243 243 242 241 241 240 241 244 243 243 235 237 235 233 228 236 231 220 219 216 220 221 187 198 199 197 192 199 174
245 242 241 240 242 241 235 236 237 237 234 235 234 239 242 244 243 241 242 242 241 243 238 239 231 232 230 229 228 234 220 232 214 212 218 216 178 175 185 198 184 173 165
253 249 241 238 240 242 242 242 244 237 231 230 228 236 239 241 241 240 242 242 242 241 238 227 227 229 228 226 225 217 240 221 216 233 213 202 180 171 169 168 173 171 176
258 255 249 241 238 243 242 243 245 236 237 226 227 234 237 241 241 237 240 242 240 238 228 217 228 231 227 223 219 224 211 205 203 179 179 182 165 189 180 179 185 192 181
261 257 253 247 241 242 247 244 247 240 235 235 226 231 236 240 239 236 235 237 233 230 225 223 230 232 215 226 208 226 205 203 214 208 181 225 212 212 188 181 181 192 190
260 257 253 250 246 242 244 246 246 241 234 242 230 228 232 237 239 237 234 231 227 226 222 223 218 214 211 227 210 222 207 200 195 206 202 221 198 192 185 199 220 211 208
255 253 249 248 249 243 242 238 243 239 234 232 226 229 231 234 235 236 234 229 222 223 219 221 216 210 214 223 218 215 192 210 201 206 197 214 223 211 201 226 215 219 214
261 251 239 238 236 239 239 239 235 238 216 227 234 227 227 230 232 232 232 226 216 216 206 213 202 210 211 213 203 224 201 195 208 218 219 231 230 234 222 227 218 217 213
260 242 235 231 230 238 225 220 235 236 236 230 231 226 225 228 229 231 228 215 210 203 208 205 202 201 206 216 215 200 202 218 220 219 221 221 213 207 222 224 226 208 193
276 257 244 230 227 214 232 232 231 228 222 228 229 228 223 224 227 224 222 208 204 213 207 200 220 224 217 226 215 229 231 227 208 199 209 223 222 229 210 212 211 211 202
274 282 274 262 236 229 224 212 220 227 226 229 229 235 233 224 221 222 219 206 206 200 201 211 217 223 223 233 239 242 228 222 233 241 227 218 226 235 230 238 232 220 212
283 275 275 281 280 254 231 219 218 220 231 231 229 214 213 224 219 217 222 210 206 215 224 218 219 226 230 235 238 229 238 228 232 216 229 232 245 244 240 231 227 230 221